Location: Eymir
(36.7333°N, 29.7833°E)
Time: 17:18:22
(UTC+00:00)

Gbstr 26 Del rocket - Pass Details

Date: 14 January 2026
Orbit: 490 x 1217 km, 51.8° (Epoch: 17 February)

Event Time Altitude Azimuth Distance (km) Brightness Sun altitude
Exits shadow 03:34:41 14° 235° (SW) 2,836 6.0 -19.4°
Maximum altitude 03:41:33 77° 320° (NW) 1,133 4.2 -18.0°
Drops below altitude 10° 03:48:16 10° 47° (NE) 2,736 6.8 -16.7°
Sets 03:50:41 0° 49° (NE) 3,583 7.5 -16.2°
